Date String (YYYY-MM-DD hh:mm:ss) UTC,Instrument flags,Ambient pressure (hPa),Sample flow (lpm),Bypass flow (lpm),Sample temperature (°C),Ambient temperature (°C),ASC tube jacket temperature (°C),LED temperature (°C),Box temperature (°C),Sample RH (%),Span deviation,Mass concentration (μg/m³),Mass concentration (μg/m³),Mass concentration (μg/m³)
DateTimeUTC,F1_M11,P_M11,Q1_M11,Q2_M11,T1_M11,T2_M11,T3_M11,T4_M11,T5_M11,U1_M11,ZSPAN_M11,X0_M11,X2_M11,X1_M11
2023-02-12 18:00:00,,0825.5,4.99,0.00,22.8,22.8,00.0,31.5,24.9,11.8,0000.0,0007.91,0003.84,0003.30
2023-02-12 18:01:00,,0825.5,4.98,0.00,22.9,22.5,00.0,31.5,24.8,11.8,0000.0,0007.88,0003.80,0003.27
2023-02-12 18:02:00,,0825.6,4.89,0.00,22.9,22.2,00.0,31.5,24.8,11.9,0000.0,0007.91,0003.79,0003.24
2023-02-12 18:03:00,,0825.5,4.93,0.00,22.9,22.1,00.0,31.6,24.8,12.1,0000.0,0007.44,0003.77,0003.22
2023-02-12 18:04:00,,0825.5,4.95,0.00,22.9,21.9,00.0,31.6,24.8,12.0,0000.0,0008.03,0003.76,0003.21
2023-02-12 18:05:00,,0825.5,5.04,0.00,22.9,21.8,00.0,31.6,24.7,12.2,0000.0,0008.93,0003.76,0003.21
2023-02-12 18:06:00,,0825.6,5.02,0.00,22.9,21.7,00.0,31.6,24.7,12.1,0000.0,0008.93,0003.72,0003.21
2023-02-12 18:07:00,,0825.6,5.00,0.00,22.9,21.6,00.0,31.6,24.7,12.0,0000.0,0008.82,0003.70,0003.20
2023-02-12 18:08:00,,0825.6,5.02,0.00,22.9,21.5,00.0,31.6,24.7,12.0,0000.0,0009.36,0003.68,0003.20
2023-02-12 18:09:00,,0825.6,5.01,0.00,22.9,21.4,00.0,31.6,24.7,11.8,0000.0,0009.34,0003.64,0003.18
2023-02-12 18:10:00,,0825.6,5.00,0.00,22.9,21.4,00.0,31.6,24.6,12.0,0000.0,0009.31,0003.62,0003.17
2023-02-12 18:11:00,,0825.7,5.01,0.00,22.8,21.4,00.0,31.6,24.6,11.7,0000.0,0009.34,0003.58,0003.15
2023-02-12 18:12:00,,0825.7,5.00,0.00,22.8,21.4,00.0,31.6,24.7,11.6,0000.0,0009.84,0003.54,0003.14
2023-02-12 18:13:00,,0825.6,5.02,0.00,22.8,21.4,00.0,31.6,24.7,11.7,0000.0,0009.72,0003.51,0003.14
2023-02-12 18:14:00,,0825.6,5.01,0.00,22.8,21.4,00.0,31.6,24.7,11.9,0000.0,0009.74,0003.49,0003.13
2023-02-12 18:15:00,,0825.7,5.01,0.00,22.8,21.4,00.0,31.7,24.7,11.6,0000.0,0010.16,0003.48,0003.13
2023-02-12 18:16:00,,0825.7,5.03,0.00,22.8,21.5,00.0,31.7,24.7,11.8,0000.0,0009.62,0003.47,0003.13
2023-02-12 18:17:00,,0825.7,4.96,0.00,22.9,21.5,00.0,31.7,24.7,11.8,0000.0,0009.53,0003.49,0003.12
2023-02-12 18:18:00,,0825.7,5.03,0.00,22.9,21.5,00.0,31.7,24.7,11.6,0000.0,0009.54,0003.49,0003.12
2023-02-12 18:19:00,,0825.7,5.01,0.00,22.9,21.5,00.0,31.7,24.7,11.8,0000.0,0009.00,0003.51,0003.12
2023-02-12 18:20:00,,0825.7,4.99,0.00,22.9,21.5,00.0,31.7,24.7,11.6,0000.0,0008.80,0003.49,0003.11
2023-02-12 18:21:00,,0825.7,5.00,0.00,22.9,21.5,00.0,31.7,24.7,11.7,0000.0,0008.79,0003.47,0003.10
2023-02-12 18:22:00,,0825.7,5.01,0.00,22.9,21.6,00.0,31.7,24.7,11.8,0000.0,0008.89,0003.51,0003.11
2023-02-12 18:23:00,,0825.7,5.03,0.00,22.9,21.6,00.0,31.7,24.7,11.7,0000.0,0008.43,0003.57,0003.13
2023-02-12 18:24:00,,0825.7,5.00,0.00,22.9,21.6,00.0,31.7,24.7,11.6,0000.0,0008.34,0003.56,0003.14
2023-02-12 18:25:00,,0825.7,5.00,0.00,22.9,21.6,00.0,31.7,24.8,11.7,0000.0,0008.32,0003.54,0003.13
2023-02-12 18:26:00,,0825.7,4.98,0.00,22.9,21.6,00.0,31.7,24.8,11.8,0000.0,0007.60,0003.53,0003.13
2023-02-12 18:27:00,,0825.7,5.02,0.00,22.9,21.7,00.0,31.7,24.8,11.9,0000.0,0006.90,0003.53,0003.11
2023-02-12 18:28:00,,0825.7,4.99,0.00,22.9,21.7,00.0,31.7,24.8,12.0,0000.0,0007.08,0003.52,0003.11
2023-02-12 18:29:00,,0825.7,5.01,0.00,22.9,21.7,00.0,31.7,24.8,11.9,0000.0,0007.16,0003.53,0003.12
2023-02-12 18:30:00,,0825.7,4.98,0.00,22.9,21.7,00.0,31.7,24.8,11.9,0000.0,0007.14,0003.52,0003.12
2023-02-12 18:31:00,,0825.7,5.01,0.00,22.9,21.7,00.0,31.7,24.8,11.8,0000.0,0007.17,0003.52,0003.12
2023-02-12 18:32:00,,0825.6,4.99,0.00,23.0,21.7,00.0,31.7,24.9,11.8,0000.0,0007.04,0003.49,0003.10
2023-02-12 18:33:00,,0825.6,5.01,0.00,23.0,21.8,00.0,31.7,24.9,11.6,0000.0,0006.78,0003.46,0003.08
2023-02-12 18:34:00,,0825.6,5.00,0.00,23.0,21.8,00.0,31.7,24.9,11.6,0000.0,0006.58,0003.44,0003.07
2023-02-12 18:35:00,,0825.6,5.02,0.00,23.0,21.8,00.0,31.7,24.9,11.7,0000.0,0006.76,0003.44,0003.05
2023-02-12 18:36:00,,0825.5,5.00,0.00,23.0,21.8,00.0,31.7,24.9,11.7,0000.0,0006.97,0003.46,0003.06
2023-02-12 18:37:00,,0825.6,5.01,0.00,23.0,21.8,00.0,31.7,24.9,11.9,0000.0,0007.43,0003.51,0003.06
2023-02-12 18:38:00,,0825.7,5.05,0.00,23.0,21.8,00.0,31.8,24.9,11.9,0000.0,0007.34,0003.53,0003.06
2023-02-12 18:39:00,,0825.6,5.04,0.00,23.0,21.9,00.0,31.8,24.9,11.9,0000.0,0006.87,0003.51,0003.05
2023-02-12 18:40:00,,0825.6,5.01,0.00,23.1,21.9,00.0,31.8,24.9,12.1,0000.0,0007.44,0003.49,0003.03
2023-02-12 18:41:00,,0825.6,5.02,0.00,23.1,21.9,00.0,31.8,25.0,12.2,0000.0,0007.85,0003.48,0003.03
2023-02-12 18:42:00,,0825.6,5.01,0.00,23.1,21.9,00.0,31.8,25.0,12.0,0000.0,0008.52,0003.49,0003.04
2023-02-12 18:43:00,,0825.6,5.04,0.00,23.1,21.9,00.0,31.8,25.0,11.5,0000.0,0008.52,0003.50,0003.06
2023-02-12 18:44:00,,0825.6,4.97,0.00,23.1,21.9,00.0,31.8,25.0,11.4,0000.0,0008.81,0003.53,0003.07
2023-02-12 18:45:00,,0825.6,5.01,0.00,23.1,21.9,00.0,31.8,25.0,11.6,0000.0,0008.98,0003.54,0003.08
2023-02-12 18:46:00,,0825.6,5.02,0.00,23.1,22.0,00.0,31.8,25.0,11.7,0000.0,0008.84,0003.54,0003.11
2023-02-12 18:47:00,,0825.6,4.98,0.00,23.1,22.0,00.0,31.8,25.0,11.5,0000.0,0008.78,0003.55,0003.12
2023-02-12 18:48:00,,0825.6,5.01,0.00,23.1,21.9,00.0,31.9,25.0,11.4,0000.0,0008.91,0003.52,0003.13
2023-02-12 18:49:00,,0825.6,4.97,0.00,23.1,21.9,00.0,31.9,25.0,11.4,0000.0,0009.02,0003.52,0003.14
2023-02-12 18:50:00,,0825.5,4.99,0.00,23.1,21.9,00.0,31.9,25.0,11.5,0000.0,0008.84,0003.55,0003.16
2023-02-12 18:51:00,,0825.6,5.01,0.00,23.1,21.9,00.0,31.9,25.0,11.6,0000.0,0008.56,0003.60,0003.17
2023-02-12 18:52:00,,0825.5,4.99,0.00,23.1,21.9,00.0,31.9,25.0,11.5,0000.0,0008.05,0003.59,0003.18
2023-02-12 18:53:00,,0825.5,5.01,0.00,23.1,21.9,00.0,31.9,25.0,11.5,0000.0,0007.41,0003.58,0003.17
2023-02-12 18:54:00,,0825.5,5.01,0.00,23.1,21.9,00.0,31.9,25.0,11.6,0000.0,0007.43,0003.60,0003.18
2023-02-12 18:55:00,,0825.5,4.99,0.00,23.1,21.9,00.0,31.9,25.0,11.6,0000.0,0007.04,0003.60,0003.18
2023-02-12 18:56:00,,0825.4,5.02,0.00,23.1,21.8,00.0,31.9,25.0,11.7,0000.0,0006.60,0003.58,0003.18
2023-02-12 18:57:00,,0825.5,5.00,0.00,23.1,21.8,00.0,31.9,24.9,11.6,0000.0,0006.56,0003.57,0003.18
2023-02-12 18:58:00,,0825.4,4.99,0.00,23.1,21.8,00.0,31.9,25.0,11.7,0000.0,0006.45,0003.55,0003.18
2023-02-12 18:59:00,,0825.4,5.01,0.00,23.1,21.8,00.0,31.9,25.0,11.7,0000.0,0005.87,0003.55,0003.18
